Location: Qazi Observatory
(41.6337°N, 88.1517°W)
Time: 17:49:47
(UTC-05:00)

Amateur Radio Satellites - All Passes

Search period start: 20 October 2014 17:19
Search period end: 21 October 2014 17:19
Location: Qazi Observatory, 41.6337°N, 88.1517°W

Satellite Date Start Highest point End Downlink Frequencies (MHz)
Time Altitude Azimuth
SO-67 20 Oct 18:05:29 18:06:48 12° 66° (ENE) 18:08:08 435.3500 MHz FM
UOSAT-12 20 Oct 18:15:21 18:17:05 12° 327° (NNW) 18:18:49 437.025 FM, 437.400 FM
Hamsat 20 Oct 18:15:48 18:19:56 52° 260° (W) 18:24:03 145.90 MHz
KITSAT 1 20 Oct 18:28:05 18:30:27 11° 5° (N) 18:32:48 435.175 FM
AO-7 20 Oct 18:30:53 18:34:03 13° 273° (W) 18:37:15 29.400 - 29.500 MHz
STRAND 1 20 Oct 18:34:19 18:37:20 16° 91° (E) 18:40:20 ?
OPAL 20 Oct 18:35:02 18:39:59 66° 289° (WNW) 18:44:52 ?
Saudisat 1A 20 Oct 18:35:59 18:39:51 30° 246° (WSW) 18:43:42 436.775 MHz
ISS 20 Oct 18:41:26 18:43:39 16° 9° (N) 18:45:51 145.800 FM
HO-68 20 Oct 18:41:57 18:43:07 10° 47° (NE) 18:44:16 435.675 MHz FM
JAS-2 20 Oct 18:59:23 19:03:45 22° 271° (W) 19:08:32 435.800 - 435.900 CW/SSB, 435.910 FM
SO-67 20 Oct 19:36:10 19:39:25 40° 262° (W) 19:42:41 435.3500 MHz FM
STRAND 1 20 Oct 20:11:51 20:16:58 64° 287° (WNW) 20:22:02 ?
ISS 20 Oct 20:17:47 20:21:00 43° 29° (NNE) 20:24:12 145.800 FM
HO-68 20 Oct 20:22:20 20:29:12 53° 67° (ENE) 20:36:08 435.675 MHz FM
KITSAT 1 20 Oct 20:23:17 20:29:33 24° 35° (NE) 20:35:46 435.175 FM
AO-40 20 Oct 20:43:12 22:56:37 30° 209° (SSW) 03:19:26 Beacon 2401.320
ZACube-1 20 Oct 20:53:48 20:54:55 11° 61° (ENE) 20:56:01 437.345 MHz
RS-15 20 Oct 20:56:50 21:01:06 13° 96° (E) 21:05:19 29.354 - 29.394 USB, Beacon 29.352 USB
UKube-1 20 Oct 21:04:39 21:08:35 34° 69° (ENE) 21:12:32 145.840 MHz, 145.915 MHz
SO-50 20 Oct 21:33:12 21:36:36 19° 40° (NE) 21:40:01 436.795 FM
FUNcube-1 20 Oct 21:36:25 21:40:22 29° 69° (ENE) 21:44:18 145.950 - 145.970 MHz USB
Oscar 11 20 Oct 21:49:56 21:54:16 88° 258° (WSW) 21:58:38 145.825 FM, Beacon 2401.500 USB
ISS 20 Oct 21:54:47 21:57:34 24° 226° (SW) 22:00:19 145.800 FM
HO-68 20 Oct 22:11:03 22:17:10 30° 265° (W) 22:23:20 435.675 MHz FM
KITSAT 1 20 Oct 22:18:07 22:26:15 81° 58° (ENE) 22:34:19 435.175 FM
ZACube-1 20 Oct 22:26:00 22:30:37 86° 257° (WSW) 22:35:13 437.345 MHz
UKube-1 20 Oct 22:41:31 22:44:50 21° 266° (W) 22:48:11 145.840 MHz, 145.915 MHz
RS-15 20 Oct 23:00:19 23:11:10 68° 116° (ESE) 23:21:56 29.354 - 29.394 USB, Beacon 29.352 USB
FUNcube-1 20 Oct 23:12:42 23:16:40 28° 264° (W) 23:20:38 145.950 - 145.970 MHz USB
SO-50 20 Oct 23:12:50 23:17:41 75° 239° (WSW) 23:22:33 436.795 FM
UOSAT-12 20 Oct 23:21:31 23:24:56 19° 41° (NE) 23:28:18 437.025 FM, 437.400 FM
KITSAT 1 21 Oct 00:15:00 00:20:42 22° 257° (WSW) 00:26:24 435.175 FM
MaSat-1 21 Oct 00:43:24 00:47:39 59° 113° (ESE) 00:51:31 437.345 MHz
UOSAT-12 21 Oct 01:00:51 01:05:33 67° 240° (WSW) 01:10:09 437.025 FM, 437.400 FM
RS-15 21 Oct 01:14:06 01:24:13 41° 321° (NW) 01:34:25 29.354 - 29.394 USB, Beacon 29.352 USB
JAS-1B 21 Oct 01:28:36 01:33:37 22° 95° (E) 01:39:14 435.800 - 435.900 CW/SSB
Oscar 16 21 Oct 01:28:55 01:32:43 21° 93° (E) 01:36:30 437.025 USB, Beacon 2401.1428
Uribyol 2 21 Oct 01:42:37 01:44:02 11° 88° (E) 01:45:27 436.500 FM
ITAMSAT 1 21 Oct 01:47:10 01:48:58 12° 89° (E) 01:50:45 435.822 SSB
AO-Echo 21 Oct 01:58:53 02:02:56 22° 93° (E) 02:06:59 ?
MaSat-1 21 Oct 02:21:24 02:23:40 14° 307° (NW) 02:25:50 437.345 MHz
Oscar 19 21 Oct 02:22:12 02:27:18 65° 102° (ESE) 02:32:22 437.125 CW, 437.150 USB
AO-27 21 Oct 02:29:18 02:33:57 31° 96° (E) 02:38:33 436.795 MHz FM
Oscar 16 21 Oct 03:07:24 03:12:18 47° 289° (WNW) 03:17:11 437.025 USB, Beacon 2401.1428
JAS-1B 21 Oct 03:18:12 03:24:30 64° 288° (WNW) 03:31:59 435.800 - 435.900 CW/SSB
Gurwin Techsat 1B 21 Oct 03:18:25 03:23:33 47° 99° (E) 03:28:39 435.225 FM
Uribyol 2 21 Oct 03:18:55 03:24:10 86° 285° (WNW) 03:29:22 436.500 FM
ITAMSAT 1 21 Oct 03:23:49 03:29:05 83° 285° (WNW) 03:34:18 435.822 SSB
PCSat 21 Oct 03:27:24 03:29:00 11° 102° (ESE) 03:30:36 145.825 MHz
TMSAT-1 21 Oct 03:32:30 03:37:37 47° 99° (E) 03:42:42 436.925 FM
RS-15 21 Oct 03:32:58 03:40:45 21° 354° (N) 03:48:40 29.354 - 29.394 USB, Beacon 29.352 USB
AO-Echo 21 Oct 03:36:50 03:41:54 48° 289° (WNW) 03:47:00 ?
Oscar 19 21 Oct 04:02:59 04:06:06 17° 299° (WNW) 04:09:13 437.125 CW, 437.150 USB
AO-27 21 Oct 04:08:47 04:13:25 33° 293° (WNW) 04:18:02 436.795 MHz FM
OPAL 21 Oct 04:12:12 04:16:36 29° 64° (ENE) 04:20:58 ?
AO-7 21 Oct 04:33:10 04:40:51 40° 99° (E) 04:48:29 29.400 - 29.500 MHz
Sapphire 21 Oct 04:43:19 04:48:33 52° 114° (ESE) 04:53:48 437.095 MHz 1200 baud AX-25 AFSK
Gurwin Techsat 1B 21 Oct 04:59:05 05:03:12 23° 296° (WNW) 05:07:19 435.225 FM
Uribyol 2 21 Oct 05:00:55 05:02:49 12° 302° (WNW) 05:04:43 436.500 FM
ITAMSAT 1 21 Oct 05:06:02 05:07:43 12° 303° (WNW) 05:09:25 435.822 SSB
PCSat 21 Oct 05:06:08 05:11:33 88° 119° (ESE) 05:17:00 145.825 MHz
JAS-1B 21 Oct 05:12:56 05:14:13 11° 305° (NW) 05:15:32 435.800 - 435.900 CW/SSB
TMSAT-1 21 Oct 05:13:06 05:17:13 23° 296° (WNW) 05:21:19 436.925 FM
Uosat F 21 Oct 05:17:51 05:22:54 69° 102° (ESE) 05:27:55 435.120 FM
RS-15 21 Oct 05:48:41 05:58:07 31° 30° (NNE) 06:07:47 29.354 - 29.394 USB, Beacon 29.352 USB
STRAND 1 21 Oct 05:50:10 05:54:12 24° 64° (ENE) 05:58:16 ?
OPAL 21 Oct 05:50:36 05:55:20 36° 260° (W) 06:00:03 ?
Hamsat 21 Oct 06:01:31 06:05:02 26° 95° (E) 06:08:32 145.90 MHz
JAS-2 21 Oct 06:05:07 06:12:40 56° 99° (E) 06:20:20 435.800 - 435.900 CW/SSB, 435.910 FM
AO-7 21 Oct 06:25:52 06:33:43 49° 297° (WNW) 06:41:34 29.400 - 29.500 MHz
Sapphire 21 Oct 06:27:48 06:32:16 26° 313° (NW) 06:36:45 437.095 MHz 1200 baud AX-25 AFSK
PCSat 21 Oct 06:52:10 06:55:43 17° 318° (NW) 06:59:16 145.825 MHz
Uosat F 21 Oct 06:58:10 07:01:06 16° 299° (WNW) 07:04:02 435.120 FM
SO-67 21 Oct 07:00:32 07:02:07 13° 92° (E) 07:03:41 435.3500 MHz FM
STRAND 1 21 Oct 07:28:17 07:33:07 43° 261° (W) 07:38:01 ?
Hamsat 21 Oct 07:37:25 07:40:55 26° 291° (WNW) 07:44:25 145.90 MHz
JAS-2 21 Oct 07:50:39 07:57:18 34° 296° (WNW) 08:04:08 435.800 - 435.900 CW/SSB, 435.910 FM
RS-15 21 Oct 08:01:10 08:12:23 82° 57° (ENE) 08:24:05 29.354 - 29.394 USB, Beacon 29.352 USB
AO-7 21 Oct 08:22:20 08:24:29 11° 319° (NW) 08:26:37 29.400 - 29.500 MHz
SO-67 21 Oct 08:32:04 08:35:14 35° 287° (WNW) 08:38:24 435.3500 MHz FM
Saudisat 1A 21 Oct 08:41:46 08:46:06 65° 120° (ESE) 08:50:29 436.775 MHz
HO-68 21 Oct 09:37:04 09:44:06 53° 101° (E) 09:51:05 435.675 MHz FM
Oscar 11 21 Oct 09:38:33 09:41:17 16° 92° (E) 09:43:59 145.825 FM, Beacon 2401.500 USB
PANSAT 21 Oct 10:08:00 10:08:17 10° 172° (S) 10:08:35 not established
RS-15 21 Oct 10:14:51 10:23:32 27° 257° (WSW) 10:32:33 29.354 - 29.394 USB, Beacon 29.352 USB
ZACube-1 21 Oct 10:16:23 10:19:17 18° 92° (E) 10:22:07 437.345 MHz
Saudisat 1A 21 Oct 10:23:06 10:26:06 18° 319° (NW) 10:29:07 436.775 MHz
UKube-1 21 Oct 10:28:11 10:32:32 62° 102° (ESE) 10:36:51 145.840 MHz, 145.915 MHz
MaSat-1 21 Oct 10:30:27 10:33:06 58° 247° (WSW) 10:35:31 437.345 MHz
FUNcube-1 21 Oct 11:01:07 11:05:21 55° 100° (E) 11:09:28 145.950 - 145.970 MHz USB
Oscar 11 21 Oct 11:13:35 11:17:40 43° 288° (WNW) 11:21:44 145.825 FM, Beacon 2401.500 USB
HO-68 21 Oct 11:25:19 11:31:28 32° 299° (WNW) 11:37:36 435.675 MHz FM
PANSAT 21 Oct 11:46:37 11:47:38 11° 185° (S) 11:48:38 not established
ZACube-1 21 Oct 11:51:51 11:55:52 39° 289° (WNW) 11:59:47 437.345 MHz
Oscar 19 21 Oct 12:03:33 12:05:48 13° 59° (ENE) 12:08:02 437.125 CW, 437.150 USB
UKube-1 21 Oct 12:06:06 12:08:12 13° 298° (WNW) 12:10:18 145.840 MHz, 145.915 MHz
PCSat 21 Oct 12:12:07 12:14:59 14° 38° (NE) 12:17:50 145.825 MHz
JAS-1B 21 Oct 12:17:15 12:20:48 17° 60° (ENE) 12:24:14 435.800 - 435.900 CW/SSB
FUNcube-1 21 Oct 12:39:02 12:41:14 14° 297° (WNW) 12:43:25 145.950 - 145.970 MHz USB
Oscar 16 21 Oct 12:45:53 12:50:25 32° 67° (ENE) 12:54:56 437.025 USB, Beacon 2401.1428
KITSAT 1 21 Oct 12:46:12 12:54:00 56° 113° (ESE) 13:01:50 435.175 FM
Uribyol 2 21 Oct 12:59:35 13:03:13 20° 62° (ENE) 13:06:52 436.500 FM
ISS 21 Oct 13:02:22 13:03:25 11° 129° (SE) 13:04:28 145.800 FM
ITAMSAT 1 21 Oct 13:04:30 13:08:14 20° 62° (ENE) 13:11:58 435.822 SSB
Gurwin Techsat 1B 21 Oct 13:04:56 13:05:55 11° 56° (ENE) 13:06:54 435.225 FM
AO-Echo 21 Oct 13:12:14 13:16:16 27° 66° (ENE) 13:20:25 ?
TMSAT-1 21 Oct 13:18:52 13:19:41 10° 56° (ENE) 13:20:30 436.925 FM
SO-50 21 Oct 13:28:17 13:32:18 33° 115° (ESE) 13:36:26 436.795 FM
Sapphire 21 Oct 13:31:03 13:36:16 44° 54° (NE) 13:41:26 437.095 MHz 1200 baud AX-25 AFSK
Oscar 19 21 Oct 13:39:14 13:44:24 86° 256° (WSW) 13:49:35 437.125 CW, 437.150 USB
AO-7 21 Oct 13:45:59 13:49:12 13° 43° (NE) 13:52:26 29.400 - 29.500 MHz
AO-27 21 Oct 13:47:32 13:52:31 49° 70° (ENE) 13:57:33 436.795 MHz FM
PCSat 21 Oct 13:53:57 13:59:23 73° 59° (ENE) 14:04:47 145.825 MHz
JAS-1B 21 Oct 14:04:48 14:10:58 70° 257° (WSW) 14:16:39 435.800 - 435.900 CW/SSB
Oscar 16 21 Oct 14:25:07 14:29:42 32° 264° (W) 14:34:18 437.025 USB, Beacon 2401.1428
ISS 21 Oct 14:36:18 14:39:38 85° 325° (NW) 14:43:00 145.800 FM
Uribyol 2 21 Oct 14:37:07 14:42:14 57° 259° (W) 14:47:24 436.500 FM
Oscar 10/S400 21 Oct 14:38:02 14:55:30 43° 155° (SSE) 15:22:56 145.825 - 145.975 CW/USB, Beacon 145.810 USB
Gurwin Techsat 1B 21 Oct 14:39:40 14:44:57 75° 74° (ENE) 14:50:16 435.225 FM
ITAMSAT 1 21 Oct 14:42:13 14:47:18 54° 259° (W) 14:52:26 435.822 SSB
KITSAT 1 21 Oct 14:42:18 14:49:42 38° 314° (NW) 14:57:09 435.175 FM
AO-Echo 21 Oct 14:50:30 14:54:53 35° 264° (W) 14:59:26 ?
TMSAT-1 21 Oct 14:53:23 14:58:40 74° 74° (ENE) 15:03:58 436.925 FM
Uosat F 21 Oct 14:56:07 14:58:13 13° 59° (ENE) 15:00:20 435.120 FM
SO-50 21 Oct 15:08:52 15:12:51 30° 313° (NW) 15:16:58 436.795 FM
UOSAT-12 21 Oct 15:12:15 15:16:26 35° 115° (ESE) 15:20:43 437.025 FM, 437.400 FM
Sapphire 21 Oct 15:14:57 15:19:26 27° 252° (WSW) 15:23:54 437.095 MHz 1200 baud AX-25 AFSK
AO-27 21 Oct 15:28:26 15:32:17 21° 267° (W) 15:36:09 436.795 MHz FM
AO-7 21 Oct 15:32:12 15:40:10 55° 65° (ENE) 15:48:09 29.400 - 29.500 MHz
PCSat 21 Oct 15:39:03 15:42:08 16° 256° (WSW) 15:45:14 145.825 MHz
ISS 21 Oct 16:14:08 16:16:44 20° 343° (NNW) 16:19:20 145.800 FM
JAS-2 21 Oct 16:19:21 16:23:47 22° 59° (ENE) 16:28:37 435.800 - 435.900 CW/SSB, 435.910 FM
Gurwin Techsat 1B 21 Oct 16:22:56 16:25:29 14° 271° (W) 16:28:02 435.225 FM
Uosat F 21 Oct 16:31:15 16:36:16 85° 256° (WSW) 16:41:21 435.120 FM
TMSAT-1 21 Oct 16:36:32 16:39:08 14° 271° (W) 16:41:44 436.925 FM
KITSAT 1 21 Oct 16:43:55 16:47:51 14° 341° (NNW) 16:51:49 435.175 FM
UOSAT-12 21 Oct 16:52:29 16:56:36 30° 313° (NW) 17:00:48 437.025 FM, 437.400 FM
Hamsat 21 Oct 16:55:32 16:58:37 20° 67° (ENE) 17:01:41 145.90 MHz
Saudisat 1A 21 Oct 17:08:15 17:12:36 55° 53° (NE) 17:16:56 436.775 MHz
